When you browse on this site, cookies collect data to enhance your experience and personalize the content and advertising you see.
Visit our Privacy Policy to learn more. By continuing to use the site, you agree to this use of cookies and data.
  • In Romania
  • List of Countries
  • For 7 days
  • Water Temperature
  • Weather Map
  • Weather Widgets
  • user-avatar
    Login

    Hourly Weather Larisa

    Today, 19 February, Wednesday

    Time Temperature Precipitation Wind Pressure Humidity
    00:00 +9°C° 0 mm 0 mps 757 mmHg 79%
    01:00 +9°C° 0 mm 0 mps 757 mmHg 79%
    02:00 +9°C° 0 mm 0 mps 757 mmHg 81%
    03:00 +8°C° 0 mm 0 mps 756 mmHg 82%
    04:00 +8°C° 0 mm 0 mps 756 mmHg 83%
    05:00 +8°C° 0 mm 0 mps 756 mmHg 83%
    06:00 +8°C° 0 mm 0 mps 756 mmHg 83%
    07:00 +8°C° 0 mm 0 mps 756 mmHg 83%
    08:00 +10°C° 0 mm 0 mps 756 mmHg 78%
    09:00 +13°C° 0 mm 1 mps 756 mmHg 72%
    10:00 +14°C° 0 mm 1 mps 756 mmHg 67%
    11:00 +15°C° 0 mm 1 mps 756 mmHg 66%
    12:00 +15°C° 0 mm 1 mps 755 mmHg 64%
    13:00 +16°C° 0 mm 1 mps 755 mmHg 63%
    14:00 +15°C° 0 mm 1 mps 754 mmHg 66%
    15:00 +15°C° 0 mm 1 mps 754 mmHg 68%
    16:00 +15°C° 0 mm 1 mps 754 mmHg 71%
    17:00 +14°C° 0 mm 1 mps 754 mmHg 75%
    18:00 +12°C° 0 mm 1 mps 754 mmHg 79%
    19:00 +11°C° 0 mm 1 mps 754 mmHg 84%
    20:00 +10°C° 0 mm 0 mps 754 mmHg 85%
    21:00 +10°C° 0 mm 0 mps 754 mmHg 86%
    22:00 +10°C° 0 mm 0 mps 753 mmHg 87%
    23:00 +9°C° 0 mm 0 mps 753 mmHg 87%

    Tomorrow, 20 February, Thursday

    Time Temperature Precipitation Wind Pressure Humidity
    00:00 +9°C° 0 mm 0 mps 753 mmHg 87%
    01:00 +9°C° 0 mm 0 mps 753 mmHg 87%
    02:00 +9°C° 0 mm 0 mps 752 mmHg 88%
    03:00 +9°C° 0 mm 0 mps 752 mmHg 89%
    04:00 +9°C° 0 mm 0 mps 751 mmHg 89%
    05:00 +9°C° 0.2 mm 0 mps 751 mmHg 90%
    06:00 +9°C° 0.2 mm 0 mps 751 mmHg 91%
    07:00 +9°C° 0.2 mm 0 mps 751 mmHg 92%
    08:00 +11°C° 0.5 mm 1 mps 751 mmHg 88%
    09:00 +12°C° 0.5 mm 1 mps 751 mmHg 84%
    10:00 +13°C° 0.5 mm 1 mps 752 mmHg 80%
    11:00 +13°C° 0.6 mm 2 mps 751 mmHg 79%
    12:00 +12°C° 0.6 mm 3 mps 751 mmHg 77%
    13:00 +12°C° 0.6 mm 4 mps 751 mmHg 75%
    14:00 +12°C° 0.2 mm 4 mps 751 mmHg 76%
    15:00 +11°C° 0.2 mm 4 mps 751 mmHg 78%
    16:00 +10°C° 0.2 mm 4 mps 751 mmHg 79%
    17:00 +10°C° 0.1 mm 3 mps 752 mmHg 80%
    18:00 +9°C° 0.1 mm 3 mps 753 mmHg 82%
    19:00 +8°C° 0.1 mm 2 mps 753 mmHg 84%
    20:00 +8°C° 0.1 mm 2 mps 754 mmHg 84%
    21:00 +8°C° 0.1 mm 2 mps 754 mmHg 84%
    22:00 +7°C° 0.1 mm 2 mps 755 mmHg 83%
    23:00 +7°C° 0.1 mm 2 mps 755 mmHg 82%

    Day after tomorrow, 21 February, Friday

    Time Temperature Precipitation Wind Pressure Humidity
    00:00 +7°C° 0.1 mm 2 mps 755 mmHg 81%
    01:00 +8°C° 0.1 mm 1 mps 756 mmHg 80%
    02:00 +8°C° 0 mm 1 mps 756 mmHg 79%
    03:00 +8°C° 0 mm 1 mps 756 mmHg 78%
    04:00 +7°C° 0 mm 1 mps 756 mmHg 77%
    05:00 +7°C° 0 mm 1 mps 756 mmHg 76%
    06:00 +7°C° 0 mm 1 mps 757 mmHg 76%
    07:00 +7°C° 0 mm 1 mps 757 mmHg 76%
    14:00 +13°C° 0 mm 1 mps 758 mmHg 47%
    15:00 +13°C° 0 mm 1 mps 758 mmHg 48%
    16:00 +12°C° 0 mm 1 mps 758 mmHg 49%
    17:00 +11°C° 0 mm 1 mps 758 mmHg 53%
    18:00 +10°C° 0 mm 1 mps 759 mmHg 57%
    19:00 +8°C° 0 mm 1 mps 759 mmHg 62%
    20:00 +8°C° 0 mm 1 mps 760 mmHg 62%
    21:00 +8°C° 0 mm 1 mps 760 mmHg 62%
    22:00 +6°C° 0 mm 0 mps 760 mmHg 62%
    23:00 +7°C° 0 mm 1 mps 761 mmHg 62%

    22 February, Saturday

    Time Temperature Precipitation Wind Pressure Humidity
    00:00 +7°C° 0 mm 1 mps 761 mmHg 62%
    01:00 +6°C° 0 mm 1 mps 761 mmHg 62%
    02:00 +6°C° 0 mm 1 mps 761 mmHg 63%
    03:00 +6°C° 0 mm 1 mps 760 mmHg 63%
    04:00 +5°C° 0 mm 1 mps 760 mmHg 64%
    05:00 +5°C° 0 mm 1 mps 760 mmHg 64%
    06:00 +6°C° 0 mm 1 mps 761 mmHg 65%
    07:00 +6°C° 0 mm 1 mps 761 mmHg 65%
    08:00 +6°C° 0 mm 2 mps 761 mmHg 58%
    09:00 +8°C° 0 mm 2 mps 761 mmHg 51%
    10:00 +10°C° 0 mm 2 mps 761 mmHg 44%
    11:00 +10°C° 0 mm 2 mps 761 mmHg 41%
    12:00 +11°C° 0 mm 3 mps 761 mmHg 37%
    13:00 +11°C° 0 mm 3 mps 761 mmHg 34%
    14:00 +11°C° 0 mm 3 mps 761 mmHg 37%
    15:00 +10°C° 0 mm 3 mps 761 mmHg 40%
    16:00 +10°C° 0 mm 3 mps 761 mmHg 44%
    17:00 +9°C° 0 mm 3 mps 761 mmHg 47%
    18:00 +7°C° 0 mm 3 mps 762 mmHg 50%
    19:00 +6°C° 0 mm 2 mps 762 mmHg 53%
    20:00 +5°C° 0 mm 2 mps 763 mmHg 55%
    21:00 +5°C° 0 mm 2 mps 764 mmHg 56%
    22:00 +5°C° 0 mm 2 mps 764 mmHg 58%
    23:00 +4°C° 0 mm 2 mps 764 mmHg 59%

    23 February, Sunday

    Time Temperature Precipitation Wind Pressure Humidity
    00:00 +5°C° 0 mm 1 mps 764 mmHg 61%
    01:00 +5°C° 0 mm 1 mps 765 mmHg 62%
    02:00 +4°C° 0 mm 1 mps 764 mmHg 62%
    03:00 +4°C° 0 mm 1 mps 764 mmHg 62%
    04:00 +4°C° 0 mm 1 mps 764 mmHg 62%
    05:00 +4°C° 0 mm 1 mps 764 mmHg 62%
    06:00 +4°C° 0 mm 1 mps 764 mmHg 63%
    07:00 +3°C° 0 mm 0 mps 764 mmHg 63%
    08:00 +6°C° 0 mm 1 mps 764 mmHg 58%
    09:00 +8°C° 0 mm 1 mps 763 mmHg 53%
    10:00 +10°C° 0 mm 1 mps 763 mmHg 48%
    11:00 +11°C° 0 mm 1 mps 762 mmHg 45%
    12:00 +12°C° 0 mm 1 mps 762 mmHg 43%
    13:00 +13°C° 0 mm 1 mps 761 mmHg 41%
    14:00 +13°C° 0 mm 1 mps 761 mmHg 44%
    15:00 +13°C° 0 mm 1 mps 761 mmHg 46%
    16:00 +13°C° 0 mm 1 mps 760 mmHg 49%
    17:00 +12°C° 0 mm 1 mps 761 mmHg 51%
    18:00 +11°C° 0 mm 1 mps 761 mmHg 52%
    19:00 +9°C° 0 mm 1 mps 761 mmHg 54%
    20:00 +9°C° 0 mm 1 mps 761 mmHg 54%
    21:00 +9°C° 0 mm 1 mps 761 mmHg 54%
    22:00 +9°C° 0 mm 1 mps 761 mmHg 54%
    23:00 +9°C° 0 mm 1 mps 760 mmHg 54%

    24 February, Monday

    Time Temperature Precipitation Wind Pressure Humidity
    00:00 +9°C° 0 mm 1 mps 760 mmHg 54%
    01:00 +8°C° 0 mm 1 mps 759 mmHg 54%
    02:00 +8°C° 0 mm 1 mps 759 mmHg 54%
    03:00 +8°C° 0 mm 1 mps 758 mmHg 54%
    04:00 +8°C° 0 mm 1 mps 757 mmHg 54%
    05:00 +8°C° 0 mm 1 mps 757 mmHg 54%
    06:00 +8°C° 0 mm 1 mps 757 mmHg 55%
    07:00 +8°C° 0 mm 1 mps 756 mmHg 56%
    08:00 +10°C° 0 mm 1 mps 756 mmHg 53%
    09:00 +13°C° 0 mm 1 mps 755 mmHg 49%
    10:00 +15°C° 0 mm 1 mps 755 mmHg 45%
    11:00 +16°C° 0 mm 1 mps 754 mmHg 43%
    12:00 +19°C° 0 mm 1 mps 754 mmHg 41%
    13:00 +20°C° 0 mm 1 mps 753 mmHg 39%
    14:00 +20°C° 0 mm 1 mps 753 mmHg 44%
    15:00 +19°C° 0 mm 1 mps 753 mmHg 49%
    16:00 +18°C° 0 mm 2 mps 753 mmHg 54%
    17:00 +16°C° 0 mm 2 mps 754 mmHg 55%
    18:00 +15°C° 0 mm 2 mps 755 mmHg 56%
    19:00 +13°C° 0 mm 2 mps 756 mmHg 56%
    20:00 +12°C° 0 mm 2 mps 757 mmHg 58%
    21:00 +12°C° 0 mm 2 mps 757 mmHg 59%
    22:00 +10°C° 0 mm 3 mps 758 mmHg 60%
    23:00 +9°C° 0 mm 2 mps 759 mmHg 57%
    Show more